Change the Weather History Date:

Friday, February 10, 2012

  Actual Average Record
Temperature  
Mean Temperature 35 °F -  
Max Temperature 44 °F 37 °F 34 °F (2015)
Min Temperature 26 °F 24 °F 19 °F (2014)
Degree Days  
Heating Degree Days 30    
Moisture  
Dew Point 26 °F    
Average Humidity 63    
Maximum Humidity 79    
Minimum Humidity 42    
Precipitation  
Precipitation 0.00 in - - ()
Sea Level Pressure  
Sea Level Pressure 30.04 in    
Wind  
Wind Speed 3 mph (SW)    
Max Wind Speed 10 mph    
Max Gust Speed 21 mph    
Visibility 10 miles    
Events      
Averages and records for this station are not official NWS values.
T = Trace of Precipitation, MM = Missing Value Source: NWS Daily Summary

Daily Weather History Graph

Daily Weather History Graph

Search for Another Location

Airport or City:

Trip Planner

Search our weather history database for the weather conditions in past years. The results will help you decide how hot, cold, wet, or windy it might be!

Date:

Astronomy

Feb. 10, 2012 Rise Set
Actual Time 6:53 AM EST 5:18 PM EST
Civil Twilight 6:24 AM EST 5:47 PM EST
Nautical Twilight 5:52 AM EST 6:19 PM EST
Astronomical Twilight 5:20 AM EST 6:52 PM EST
Moon 8:56 PM EST (2/10) 7:57 AM EST (2/10)
Length of Visible Light 11h 22m
Length of Day
10h 25m
Waning Gibbous, 90% of the Moon is Illuminated
Feb 10
Waning Gibbous
Feb 14
Last Quarter
Feb 21
New
Feb 29
First Quarter
Mar 8
Full

Hourly Weather History & Observations

Time (EST) Temp. Windchill Dew Point Humidity Pressure Visibility Wind Dir Wind Speed Gust Speed Precip Events Conditions
12:53 AM 26.1 °F - 19.9 °F 78% 30.13 in 10.0 mi Calm Calm - N/A   Clear
1:53 AM 35.1 °F - 24.1 °F 64% 30.13 in 10.0 mi Calm Calm - N/A   Clear
2:53 AM 30.0 °F 26.5 °F 19.9 °F 66% 30.13 in 10.0 mi West 3.5 mph - N/A   Clear
3:53 AM 32.0 °F - 21.9 °F 66% 30.12 in 10.0 mi Calm Calm - N/A   Clear
4:53 AM 28.0 °F - 21.0 °F 75% 30.11 in 10.0 mi Calm Calm - N/A   Clear
5:53 AM 28.9 °F - 23.0 °F 78% 30.10 in 10.0 mi Calm Calm - N/A   Mostly Cloudy
6:53 AM 28.0 °F - 21.9 °F 78% 30.11 in 10.0 mi Calm Calm - N/A   Mostly Cloudy
7:53 AM 34.0 °F 31.0 °F 24.1 °F 67% 30.14 in 10.0 mi WSW 3.5 mph - N/A   Scattered Clouds
8:53 AM 36.0 °F - 23.0 °F 59% 30.13 in 10.0 mi Calm Calm - N/A   Clear
9:53 AM 39.0 °F 35.7 °F 24.1 °F 55% 30.12 in 10.0 mi Variable 4.6 mph - N/A   Partly Cloudy
10:53 AM 41.0 °F 34.7 °F 25.0 °F 53% 30.11 in 10.0 mi SW 10.4 mph - N/A   Scattered Clouds
11:53 AM 42.1 °F 36.1 °F 27.0 °F 55% 30.08 in 10.0 mi SSW 10.4 mph 16.1 mph N/A   Scattered Clouds
12:53 PM 43.0 °F 38.8 °F 21.9 °F 43% 30.05 in 10.0 mi WSW 6.9 mph - N/A   Clear
1:53 PM 44.1 °F 41.5 °F 21.9 °F 42% 30.02 in 10.0 mi Variable 4.6 mph - N/A   Mostly Cloudy
2:53 PM 44.1 °F 39.5 °F 25.0 °F 47% 30.01 in 10.0 mi SSW 8.1 mph - N/A   Mostly Cloudy
3:53 PM 43.0 °F 39.5 °F 28.9 °F 58% 29.99 in 10.0 mi South 5.8 mph - N/A   Clear
4:53 PM 43.0 °F 38.8 °F 32.0 °F 65% 29.97 in 10.0 mi South 6.9 mph - N/A   Clear
5:53 PM 42.1 °F 38.4 °F 33.1 °F 70% 29.98 in 10.0 mi SSW 5.8 mph - N/A   Mostly Cloudy
6:53 PM 42.1 °F 40.2 °F 34.0 °F 73% 29.97 in 10.0 mi SW 3.5 mph - N/A   Scattered Clouds
7:53 PM 43.0 °F 41.3 °F 36.0 °F 76% 29.96 in 10.0 mi SW 3.5 mph - N/A   Scattered Clouds
8:53 PM 42.1 °F 39.2 °F 36.0 °F 79% 29.93 in 10.0 mi WSW 4.6 mph - N/A   Overcast
9:53 PM 42.1 °F 36.1 °F 26.1 °F 53% 29.93 in 10.0 mi WSW 10.4 mph - N/A   Overcast
10:53 PM 39.9 °F 33.4 °F 27.0 °F 60% 29.93 in 10.0 mi SW 10.4 mph 20.7 mph N/A   Overcast
11:53 PM 39.0 °F 34.0 °F 27.0 °F 62% 29.92 in 10.0 mi WSW 6.9 mph - N/A   Overcast